Weather History for CYYT - October, 2012

Change the Weather History Date:

Thursday, October 4, 2012

  Actual Average Record
Temperature  
Mean Temperature 49 °F -  
Max Temperature 50 °F 50 °F 68 °F (2005)
Min Temperature 48 °F 37 °F 35 °F (2002)
Degree Days  
Heating Degree Days 16    
Moisture  
Dew Point 49 °F    
Average Humidity 100    
Maximum Humidity 100    
Minimum Humidity 94    
Precipitation  
Precipitation 0.12 in 0.20 in - ()
Sea Level Pressure  
Sea Level Pressure 29.88 in    
Wind  
Wind Speed 19 mph ()    
Max Wind Speed 28 mph    
Max Gust Speed 39 mph    
Visibility 4.3 miles    
Events Rain    
Averages and records for this station are not official NWS values.
T = Trace of Precipitation, MM = Missing Value Source: Averaged Metar Reports

Daily Weather History Graph

Daily Weather History Graph

Search for Another Location

Airport or City:

Trip Planner

Search our weather history database for the weather conditions in past years. The results will help you decide how hot, cold, wet, or windy it might be!

Date:

Astronomy

Oct. 04, 2012 Rise Set
Actual Time 7:04 AM NDT 6:33 PM NDT
Civil Twilight 6:34 AM NDT 7:04 PM NDT
Nautical Twilight 5:58 AM NDT 7:39 PM NDT
Astronomical Twilight 5:22 AM NDT 8:15 PM NDT
Moon 8:44 PM NDT (10/4) 11:35 AM NDT (10/4)
Length of Visible Light 12h 30m
Length of Day
11h 28m
Waning Gibbous, 82% of the Moon is Illuminated
Oct 4
Waning Gibbous
Oct 8
Last Quarter
Oct 15
New
Oct 22
First Quarter
Oct 29
Full

Hourly Weather History & Observations

Time (NDT) Temp. Dew Point Humidity Pressure Visibility Wind Dir Wind Speed Gust Speed Precip Events Conditions
12:03 AM 50.0 °F 50.0 °F 100% 29.68 in 10.0 mi North 19.6 mph 34.5 mph N/A Rain Light Rain
12:30 AM 50.0 °F 50.0 °F 100% 29.68 in 12.0 mi North 18.4 mph 32.2 mph N/A   Light Drizzle
1:30 AM 50.0 °F 50.0 °F 100% 29.70 in 10.0 mi North 20.7 mph 31.1 mph N/A   Light Drizzle
2:30 AM 50.0 °F 50.0 °F 100% 29.70 in 12.0 mi North 18.4 mph 29.9 mph N/A   Light Drizzle
3:30 AM 51 °F 51 °F 98% 29.71 in 12 mi North 18.4 mph - - Rain Light Drizzle
3:30 AM 50.0 °F 50.0 °F 100% 29.71 in 12.0 mi North 16.1 mph 33.4 mph N/A   Light Drizzle
3:57 AM 50.0 °F 50.0 °F 100% 29.72 in 4.0 mi North 19.6 mph 36.8 mph N/A Rain Light Rain
4:30 AM 50.0 °F 50.0 °F 100% 29.73 in 4.0 mi North 21.9 mph 33.4 mph N/A Rain Light Rain
5:11 AM 50.0 °F 50.0 °F 100% 29.74 in 3.0 mi North 23.0 mph 34.5 mph N/A   Light Drizzle
5:30 AM 50.0 °F 50.0 °F 100% 29.75 in 2.0 mi North 26.5 mph 35.7 mph N/A   Light Drizzle
6:30 AM 50.0 °F 50.0 °F 100% 29.77 in 1.5 mi North 23.0 mph 33.4 mph N/A Rain Light Rain
7:30 AM 50.0 °F 50.0 °F 100% 29.79 in 3.0 mi North 19.6 mph 36.8 mph N/A   Light Drizzle
8:30 AM 50.0 °F 48.2 °F 94% 29.82 in 3.0 mi North 26.5 mph 36.8 mph N/A   Light Drizzle
9:30 AM 49 °F 49 °F 100% 29.85 in 3 mi North 24.2 mph - - Rain Light Drizzle
9:30 AM 50.0 °F 50.0 °F 100% 29.85 in 3.0 mi North 21.9 mph 39.1 mph N/A   Light Drizzle
10:30 AM 50.0 °F 50.0 °F 100% 29.87 in 5.0 mi North 26.5 mph 39.1 mph N/A   Light Drizzle
10:58 AM 50.0 °F 50.0 °F 100% 29.88 in 3.0 mi North 27.6 mph 39.1 mph N/A Rain Light Rain Showers
11:30 AM 50.0 °F 50.0 °F 100% 29.88 in 3.0 mi NNE 21.9 mph 35.7 mph N/A   Light Drizzle
12:30 PM 50.0 °F 50.0 °F 100% 29.91 in 3.0 mi North 25.3 mph 35.7 mph N/A   Light Drizzle
1:30 PM 50.0 °F 50.0 °F 100% 29.91 in 3.0 mi North 25.3 mph 35.7 mph N/A   Light Drizzle
2:30 PM 50.0 °F 50.0 °F 100% 29.93 in 3.0 mi North 26.5 mph 34.5 mph N/A Rain Light Rain Showers
3:30 PM 49 °F 49 °F 100% 29.95 in 3 mi North 23.0 mph - - Rain Light Rain Showers
3:30 PM 50.0 °F 50.0 °F 100% 29.95 in 3.0 mi North 27.6 mph 34.5 mph N/A Rain Light Rain Showers
4:30 PM 50.0 °F 50.0 °F 100% 29.97 in 3.0 mi North 15.0 mph 29.9 mph N/A Rain Light Rain Showers
5:30 PM 50.0 °F 50.0 °F 100% 29.98 in 3.0 mi North 19.6 mph 27.6 mph N/A Rain Light Rain Showers
6:30 PM 48.2 °F 48.2 °F 100% 30.00 in 3.0 mi North 23.0 mph 32.2 mph N/A Rain Light Rain Showers
7:30 PM 48.2 °F 48.2 °F 100% 30.00 in 2.0 mi North 18.4 mph 31.1 mph N/A Rain Light Rain Showers
8:00 PM 48.2 °F 48.2 °F 100% 30.01 in 2.0 mi North 18.4 mph 28.8 mph N/A   Light Drizzle
8:30 PM 48.2 °F 48.2 °F 100% 30.02 in 4.0 mi North 17.3 mph 31.1 mph N/A   Light Drizzle
9:10 PM 48.2 °F 48.2 °F 100% 30.02 in 2.0 mi NNE 16.1 mph 26.5 mph N/A   Light Drizzle
9:30 PM 49 °F 49 °F 100% 30.02 in 2 mi NNE 18.4 mph - - Rain Light Drizzle
9:30 PM 48.2 °F 48.2 °F 100% 30.01 in 2.0 mi NNE 19.6 mph 29.9 mph N/A   Light Drizzle
9:50 PM 50.0 °F 50.0 °F 100% 30.02 in 4.0 mi NNE 16.1 mph 28.8 mph N/A   Light Drizzle
10:15 PM 48.2 °F 48.2 °F 100% 30.02 in 2.0 mi NNE 16.1 mph 23.0 mph N/A   Light Drizzle
10:30 PM 48.2 °F 48.2 °F 100% 30.03 in 2.0 mi North 16.1 mph - N/A   Light Drizzle
11:30 PM 48.2 °F 48.2 °F 100% 30.03 in 5.0 mi North 19.6 mph - N/A   Light Drizzle